TimeCDT,TemperatureF,Dew PointF,Humidity,Sea Level PressureIn,VisibilityMPH,Wind Direction,Wind SpeedMPH,Gust SpeedMPH,PrecipitationIn,Events,Conditions,WindDirDegrees,DateUTC
12:53 AM,80.1,63.0,56,29.74,-9999.0,ESE,11.5,-,N/A,,Unknown,110,2012-10-22 05:53:00
1:53 AM,77.0,62.1,60,29.73,-9999.0,East,9.2,-,N/A,,Unknown,100,2012-10-22 06:53:00
2:53 AM,75.9,63.0,64,29.73,-9999.0,East,15.0,-,N/A,,Unknown,100,2012-10-22 07:53:00
3:53 AM,75.0,63.0,66,29.75,-9999.0,SE,4.6,-,N/A,,Unknown,130,2012-10-22 08:53:00
4:53 AM,72.0,63.0,73,29.77,-9999.0,NNE,5.8,-,N/A,,Unknown,20,2012-10-22 09:53:00
5:53 AM,70.0,62.1,76,29.78,-9999.0,NNE,5.8,-,N/A,,Unknown,30,2012-10-22 10:53:00
6:53 AM,70.0,63.0,78,29.80,-9999.0,North,5.8,-,N/A,,Unknown,10,2012-10-22 11:53:00
7:53 AM,72.0,64.0,76,29.82,-9999.0,NNE,5.8,-,N/A,,Unknown,20,2012-10-22 12:53:00
8:53 AM,73.0,64.9,76,29.83,-9999.0,East,6.9,-,N/A,,Unknown,80,2012-10-22 13:53:00
9:53 AM,73.0,66.0,79,29.86,-9999.0,ESE,4.6,-,N/A,,Unknown,120,2012-10-22 14:53:00
10:53 AM,73.9,66.0,76,29.86,-9999.0,East,4.6,-,N/A,,Unknown,100,2012-10-22 15:53:00
11:53 AM,75.9,66.0,71,29.86,-9999.0,Variable,3.5,-,N/A,,Unknown,0,2012-10-22 16:53:00
12:53 PM,81.0,66.9,62,29.84,-9999.0,East,5.8,-,N/A,,Unknown,80,2012-10-22 17:53:00
1:53 PM,84.9,66.0,53,29.80,-9999.0,ENE,6.9,-,N/A,,Unknown,70,2012-10-22 18:53:00
2:53 PM,88.0,64.9,46,29.76,-9999.0,SE,10.4,-,N/A,,Unknown,130,2012-10-22 19:53:00
3:53 PM,90.0,64.0,42,29.73,-9999.0,ESE,11.5,-,N/A,,Unknown,110,2012-10-22 20:53:00
4:53 PM,90.0,62.1,39,29.73,-9999.0,East,10.4,17.3,N/A,,Unknown,100,2012-10-22 21:53:00
5:53 PM,88.0,63.0,43,29.74,-9999.0,ESE,16.1,-,N/A,,Unknown,120,2012-10-22 22:53:00
6:53 PM,84.0,64.0,51,29.76,-9999.0,ESE,19.6,24.2,N/A,,Unknown,110,2012-10-22 23:53:00
7:53 PM,82.0,64.0,54,29.78,-9999.0,ESE,11.5,-,N/A,,Unknown,120,2012-10-23 00:53:00
8:53 PM,80.1,64.0,58,29.81,-9999.0,East,8.1,-,N/A,,Unknown,90,2012-10-23 01:53:00
9:53 PM,78.1,63.0,60,29.81,-9999.0,East,8.1,-,N/A,,Unknown,90,2012-10-23 02:53:00
11:53 PM,73.9,61.0,64,29.81,-9999.0,East,5.8,-,N/A,,Unknown,90,2012-10-23 04:53:00